This demonstration page uses our WeatherBlox Daily Observations layout. Learn more.

Left ArrowRight Arrow

38.83388, -104.82136

Hourly Observations for January 10, 2021

Temp ( °F °C ) Dew Point ( °F °C ) Humidity (%) Winds ( mph kmh ) Pressure ( in mb ) Visibility ( mi km ) Precip ( " mm )
12:11 am 00:11 Mostly Cloudy with Freezing Fog 21 -6 21 -6 100 100 Calm 30.11 1020 3 5 0.00 0.00
12:26 am 00:26 Mostly Cloudy with Mist and Fog 21 -6 21 -6 100 100 Calm 30.09 1019 3 5 0.00 0.00
12:51 am 00:51 Cloudy with Mist and Fog 21 -6 21 -6 100 100 Calm 30.08 1019 3 5 0.00 0.00
12:56 am 00:56 Mostly Cloudy with Mist and Fog 21 -6.1 21 -6.2 99 99 Calm 30.08 1019 3 4 0.00 0.00
1:11 am 01:11 Mostly Cloudy with Freezing Fog 21 -6 21 -6 100 100 SSE 6 9 30.08 1019 1 1 0.00 0.00
1:26 am 01:26 Mostly Cloudy with Mist and Fog 21 -6 21 -6 100 100 SSE 6 9 30.08 1019 2 4 0.00 0.00
1:56 am 01:56 Mostly Cloudy with Mist and Fog 20 -6.5 20 -6.5 100 100 S 6 9 30.08 1019 5 8 0.00 0.00
2:41 am 02:41 Mostly Cloudy with Freezing Fog 21 -6 21 -6 100 100 Calm 30.11 1020 1 2 0.00 0.00
2:56 am 02:56 Mostly Cloudy with Mist and Fog 21 -6.3 21 -6.3 100 100 Calm 30.09 1019 7 11 0.00 0.00
3:16 am 03:16 Mostly Cloudy with Mist and Fog 21 -6 21 -6 100 100 Calm 30.09 1019 3 4 0.00 0.00
3:21 am 03:21 Mostly Cloudy 21 -6 21 -6 100 100 Calm 30.09 1019 9 14 0.00 0.00
3:36 am 03:36 Mostly Cloudy with Freezing Fog 19 -7 19 -7 100 100 Calm 30.09 1019 1 2 0.00 0.00
3:51 am 03:51 Mostly Cloudy with Mist and Fog 19 -7 19 -7 100 100 Calm 30.09 1019 3 5 0.00 0.00
3:56 am 03:56 Mostly Cloudy 20 -6.7 20 -6.6 100 100 Calm 30.09 1019 8 13 0.00 0.00
4:16 am 04:16 Cloudy 19 -7 19 -7 100 100 Calm 30.09 1019 10 16 0.00 0.00
4:36 am 04:36 Cloudy 21 -6 21 -6 100 100 Calm 30.09 1019 10 16 0.00 0.00
4:56 am 04:56 Cloudy 20 -6.5 20 -6.5 100 100 Calm 30.09 1019 10 16 0.01 0.25
5:56 am 05:56 Cloudy 20 -6.7 20 -6.8 99 99 Calm 30.09 1019 10 16 0.00 0.00
6:26 am 06:26 Mostly Cloudy 19 -7 19 -7 100 100 Calm 30.09 1019 10 16 0.00 0.00
6:56 am 06:56 Mostly Cloudy with Mist and Fog 19 -7.3 19 -7.5 98 98 Calm 30.09 1019 7 11 0.00 0.00
7:11 am 07:11 Mostly Cloudy 18 -8 18 -8 100 100 Calm 30.11 1020 10 16 0.00 0.00
7:31 am 07:31 Partly Cloudy 16 -9 16 -9 100 100 Calm 30.11 1020 10 16 0.00 0.00
7:41 am 07:41 Mostly Cloudy 18 -8 18 -8 100 100 Calm 30.12 1020 10 16 0.00 0.00
7:51 am 07:51 Partly Cloudy 18 -8 18 -8 100 100 Calm 30.12 1020 10 16 0.00 0.00
7:56 am 07:56 Partly Cloudy 18 -7.7 18 -7.9 98 98 N 3 6 30.12 1020 10 16 0.00 0.00
8:41 am 08:41 Mostly Cloudy with Mist and Fog 21 -6 19 -7 93 93 Calm 30.11 1020 3 5 0.00 0.00
8:56 am 08:56 Mostly Cloudy with Mist and Fog 20 -6.8 19 -7 98 98 Calm 30.11 1020 3 5 0.02 0.51
9:56 am 09:56 Mostly Cloudy with Mist and Fog 20 -6.6 20 -6.7 99 99 ENE 3 6 30.11 1020 6 10 0.04 1.02
10:26 am 10:26 Mostly Cloudy with Mist and Fog 19 -7 19 -7 100 100 Calm 30.11 1020 1 2 0.00 0.00
10:56 am 10:56 Mostly Cloudy with Freezing Fog 20 -6.9 20 -6.8 100 100 SE 5 7 30.09 1019 0 0 0.00 0.00
11:56 am 11:56 Mostly Cloudy with Freezing Fog 19 -7 19 -7.1 99 99 SE 5 7 30.06 1018 N/A 0.00 0.00
12:56 pm 12:56 Mostly Cloudy with Freezing Fog 20 -6.6 20 -6.7 99 99 ESE 3 6 30.06 1018 N/A 0.00 0.00
1:56 pm 13:56 Mostly Cloudy with Freezing Fog 20 -6.8 20 -6.8 100 100 Calm 30.05 1018 N/A 0.00 0.00
2:56 pm 14:56 Mostly Cloudy with Freezing Fog 19 -7 19 -7.1 99 99 Calm 30.06 1018 N/A 0.00 0.00
3:56 pm 15:56 Mostly Cloudy with Freezing Fog 18 -7.7 18 -7.9 98 98 Calm 30.06 1018 N/A 0.00 0.00
4:56 pm 16:56 Mostly Cloudy with Freezing Fog 18 -7.6 18 -8 97 97 Calm 30.06 1018 0 0 0.00 0.00
5:56 pm 17:56 Mostly Cloudy with Freezing Fog 18 -7.7 17 -8.2 96 96 Calm 30.07 1018 0 0 0.00 0.00
6:56 pm 18:56 Mostly Cloudy with Freezing Fog 18 -8 17 -8.5 96 96 Calm 30.08 1019 0 0 0.00 0.00
7:56 pm 19:56 Mostly Cloudy with Freezing Fog 16 -8.7 15 -9.3 95 95 NNW 5 7 30.09 1019 1 2 0.00 0.00
8:36 pm 20:36 Partly Cloudy with Mist and Fog 16 -9 14 -10 93 93 Calm 30.09 1019 5 8 0.00 0.00
8:56 pm 20:56 Clear 17 -8.5 15 -9.2 95 95 Calm 30.07 1018 10 16 0.00 0.00
9:56 pm 21:56 Clear 20 -6.7 19 -7 98 98 Calm 30.07 1018 10 16 0.00 0.00
10:56 pm 22:56 Clear 20 -6.5 20 -6.8 98 98 SW 3 6 30.05 1018 10 16 0.00 0.00
11:56 pm 23:56 Clear 22 -5.6 17 -8.5 80 80 W 6 9 30.04 1017 10 16 0.00 0.00

Powered by AerisWeather